Weather in Yasenki

Russia / Kursk Oblast     51°32′01″N   38°12′51″E
temp.,
°C
wind,
m/s
gust,
m/s
humid.,
%
clouds,
%
prec.,
mm/h
press.,
hPa
HPBL,
m
3 march, wed
wed300:000nnw5997100 0.5 1012605
03:00−1nnw6139584 0.8 1014574
06:00−1nnw71287100 0.0 1015817
09:00−3nnw8128795 0.1 1018896
12:00−2nnw7107883 0.0 1019944
15:00−1nw697554 0.0 1020854
18:00−2w410872 0.0 1020404
21:00−2w613924 0.0 1020456
4 march, thu
thu400:00−2w6129287 0.0 1018466
03:00−2w6139380 0.0 1017382
06:00−2wsw613917 0.0 1015366
09:00−1wsw714838 0.0 1014526
12:00+2wsw814700 0.0 1011762
15:00+4sw815660 0.0 1008859
18:00+3sw7168028 0.0 1006670
21:00+3wsw7168761 0.0 1005677
5 march, fri
fri500:00+2wsw61396100 0.3 1004555
03:00+2wsw61196100 0.5 1004531
06:00+1w71397100 0.3 1004613
09:00+1w7108896 0.3 1006678
12:00+2w5884100 0.1 1008718
15:00−1n4689100 0.4 1009431
18:00−2nne4688100 0.5 1010522
21:00−2nne4681100 0.6 1012606
6 march, sat
sat600:00−3n4680100 0.0 1013560
03:00−4n477470 0.0 1015449
06:00−4nnw358164 0.0 1016304
09:00−4nnw348159 0.0 1017360
12:00−2nw34630 0.0 1017809
15:00−1nw355830 0.0 10171092
18:00−3nw575692 0.4 10171228
21:00−4wnw356988 0.5 1018742
7 march, sun
sun700:00−5nw588055 0.1 1019608
03:00−6wnw477652 0.1 1019637
06:00−6wsw510680 0.0 1018637
09:00−4wsw9145633 0.0 1016941
12:00−2sw101649100 0.0 10131165
15:000wsw11184995 0.0 10101351
18:000wsw101862100 0.0 10071397
21:00−1wsw91675100 0.0 10061122